#timestamp,LO_Frequency,Hit 
1504346415.2,286047002.3,N
1504346435.9,286047001.1,N
1504346455.7,286047005.5,N
1504346475.6,286047004.3,N
1504346495.4,286047002.4,N
1504346515.2,286047006.7,N
1504346535.1,286047018.5,P
1504346536.0,286047018.5,N
1504346555.8,286047014.6,N
1504346575.6,286047010.2,N
1504346595.5,286047017.0,N
1504346615.3,286047011.5,N
1504346635.1,286047010.6,N
1504346655.9,286047011.6,N
1504346675.7,286047008.7,N
1504346695.5,286047007.9,N
1504346715.3,286047001.5,N
1504346735.2,286047004.1,N
1504346755.0,286047003.0,N
1504346755.9,286047003.0,N
1504346775.7,286047005.2,N
1504346795.6,286047012.1,N
1504346815.4,286047008.4,N
1504346835.2,286047007.8,N
1504346855.1,286047006.1,N
1504346856.0,286047006.1,N
1504346875.8,286047008.1,N
1504346895.6,286047006.4,N
1504346915.5,286047003.7,N
1504346935.3,286046998.7,N
1504346955.1,286047002.3,N
1504346975.9,286047010.5,N
1504346995.7,286047023.8,P
1504347015.5,286047016.9,N
1504347035.4,286047008.1,N
1504347055.2,286047011.8,N
1504347075.0,286047018.0,N
1504347075.9,286047018.0,P
1504347095.8,286047003.8,N
1504347115.6,286046999.9,N
1504347135.4,286046991.7,N
1504347155.3,286046985.8,N
1504347175.1,286046985.4,N
1504347176.0,286046985.4,N
1504347195.8,286046989.0,N
1504347215.7,286046993.9,N
1504347235.5,286046992.9,N
1504347255.3,286046992.0,N
1504347275.1,286046997.6,N
1504347295.9,286047001.6,N
1504347315.7,286047004.2,N
1504347335.5,286047004.4,N
1504347355.4,286047000.7,N
1504347375.2,286047005.1,N
1504347395.0,286047002.9,N
1504347395.9,286047002.9,N
1504347415.8,286047001.2,N
1504347435.6,286046996.8,N
1504347455.4,286046997.3,N
1504347475.3,286046999.1,N
1504347495.1,286046997.2,N
1504347496.0,286046997.2,N
1504347515.8,286046997.3,N
1504347535.7,286046990.7,N
1504347555.5,286046991.6,N
1504347575.3,286046993.6,N
1504347595.1,286046990.9,N
1504347615.9,286046989.2,N
1504347635.7,286046990.0,N
1504347655.5,286046988.7,N
1504347675.4,286046993.2,N
1504347695.2,286046994.5,N
1504347715.0,286046995.0,N
1504347715.9,286046995.0,N
1504347735.8,286046999.6,N
1504347755.6,286046995.6,N
1504347775.4,286046998.9,N
1504347795.3,286047000.1,N
1504347815.1,286046999.5,N
1504347816.0,286046999.5,N
1504347835.8,286046994.3,N
1504347855.7,286046993.8,N
1504347875.5,286046998.8,N
1504347895.3,286047000.9,N
1504347915.2,286046997.2,N
1504347935.9,286046994.1,N
1504347955.7,286046994.6,N
1504347975.5,286046992.9,N
1504347995.4,286046989.1,P
1504348015.2,286046991.5,N
1504348035.0,286046991.7,P
1504348036.0,286046991.7,P
1504348055.8,286047002.9,P
1504348075.6,286047004.7,N
1504348095.5,286047003.6,N
1504348115.3,286047003.3,N
1504348135.1,286047002.8,N
1504348155.9,286047002.5,N
1504348175.7,286047004.5,N
1504348195.5,286047007.0,N
1504348215.3,286047003.0,N
1504348235.2,286047003.3,N
1504348255.0,286047003.7,N
1504348255.9,286047003.7,N
1504348275.7,286047002.5,N
1504348295.6,286047001.5,N
1504348315.4,286047005.1,N
1504348335.2,286047006.1,N
1504348355.1,286047003.5,N
1504348356.0,286047003.5,N
1504348375.8,286046998.4,N
1504348395.6,286047000.2,N
1504348415.5,286047000.7,N
1504348435.3,286047002.3,N
1504348455.1,286046998.4,N
1504348475.9,286047004.2,N
1504348495.7,286047002.8,N
1504348515.5,286047003.5,N
1504348535.3,286047005.5,N
1504348555.2,286047006.8,N
1504348575.0,286047007.4,N
1504348575.9,286047007.4,N
1504348595.8,286047008.4,P
1504348615.6,286047000.4,N
1504348635.4,286046999.3,N
1504348655.2,286046996.8,N
1504348675.1,286046996.3,N
1504348676.0,286046996.3,N
1504348695.8,286046992.3,N
1504348715.8,286046994.1,N
1504348735.6,286046996.7,N
1504348755.5,286047000.6,N
1504348775.3,286047004.8,N
1504348795.1,286047005.1,N
1504348815.8,286047001.3,N
1504348835.7,286046999.6,N
1504348855.5,286046993.3,N
1504348875.3,286046992.3,N
1504348895.2,286046994.5,N
1504348915.9,286046989.2,N
1504348935.7,286046993.2,N
1504348955.6,286046988.5,N
1504348975.4,286046991.7,N
1504348995.2,286046997.1,N
1504349015.1,286047014.6,N
1504349016.0,286047014.6,N
1504349035.8,286047023.9,P
1504349055.6,286047021.6,N
1504349075.5,286047014.1,N
1504349095.3,286047013.4,N
1504349115.1,286047006.9,N
1504349135.9,286047003.7,N
1504349155.0,286047002.1,N
1504349155.9,286047002.1,N
1504349175.8,286047004.2,N
1504349195.6,286046999.8,N
1504349215.4,286047005.5,N
1504349235.3,286047014.6,N
1504349255.1,286047013.5,N
1504349256.0,286047013.5,N
1504349275.8,286047007.9,N
1504349295.7,286047008.1,N
1504349315.5,286047010.7,N
1504349335.3,286047004.4,N
1504349355.1,286047004.9,N
1504349375.9,286047005.5,N
1504349395.7,286047007.1,N
1504349415.5,286047004.0,N
1504349435.4,286046997.1,N
1504349455.2,286046998.9,N
1504349475.0,286046997.0,N
1504349475.9,286046997.0,N
1504349495.8,286046998.1,N
1504349515.6,286047011.9,N
1504349535.4,286047024.1,P
1504349555.3,286047025.9,N
1504349575.1,286047016.6,N
1504349576.0,286047016.6,N
1504349595.8,286047008.8,N
1504349615.7,286047009.5,N
1504349635.5,286047011.1,N
1504349655.3,286047007.5,N
1504349675.2,286047003.6,N
1504349695.9,286047032.8,P
1504349715.2,286047013.4,N
1504349735.9,286047007.4,N
1504349755.7,286047017.1,N
1504349775.5,286047007.1,N
1504349795.4,286047010.8,N
1504349815.2,286047003.0,N
1504349835.0,286046997.9,N
1504349835.9,286046997.9,N
1504349855.8,286046993.4,N
1504349875.6,286046993.1,N
1504349895.4,286046995.1,N
1504349915.3,286046994.5,N
1504349935.1,286046994.1,N
1504349936.0,286046994.1,N
1504349955.8,286046999.7,N
1504349975.7,286047003.8,N
1504349995.5,286046999.3,N
